Terminal Aerodrome Forecast
Issued by NWS

Home | Current Version | Previous Version | Graphics & Text | Print | Product List | Glossary Off
Versions: 1 2 3 4 5 6 7 8 9 10 11 12 13 14 15 16 17 18 19 20 21 22 23 24 25 26 27 28 29 30 31 32

462
FTUS43 KDDC 071136
TAFGCK
TAF
KGCK 071136Z 0712/0812 11010KT P6SM OVC040
     FM071500 08012KT P6SM OVC040
      TEMPO 0716/0720 3SM -SN BKN020
     FM072000 03015G25KT P6SM OVC020
     FM080100 01010KT P6SM BKN040=

USA.gov is the U.S. government's official web portal to all federal, state and local government web resources and services.